Location: East Pasadena
(34.1461°N, 118.0942°W)
Time: 03:18:04
(UTC+00:00)

Daily predictions for brighter satellites

Satellite Brightness Start Highest point End
(mag) Time Altitude Azimuth Time Altitude Azimuth Time Altitude Azimuth
Cosmos 1943 3.7 02:07:12 10° N 02:12:32 41° ENE 02:17:50 10° SE
Cosmos 1680 Rocket 3.5 02:07:46 10° NNW 02:13:00 74° ENE 02:18:14 10° SSE
USA 234 4.4 02:10:14 10° ENE 02:14:58 21° ESE 02:19:41 10° S
Cosmos 158 Rocket 4.0 02:10:51 10° NNW 02:16:05 89° ENE 02:21:08 10° SSE
Iridium 4 Rocket 3.4 02:11:40 10° S 02:16:26 71° E 02:21:42 10° N
Helios 1A Rocket 2.9 02:12:26 10° SSE 02:16:31 85° ENE 02:20:39 10° NNW
Cosmos 1975 Rocket 3.7 02:13:59 10° NNE 02:17:54 33° E 02:21:47 10° SE
Meteor 2-11 Rocket 4.5 02:12:44 10° S 02:18:51 79° E 02:25:01 10° N
COSMO-SKYMED 1 3.9 02:19:29 10° N 02:23:38 45° WNW 02:27:46 10° SSW
CSL-04 Rocket 4.2 02:19:18 10° SE 02:24:13 37° ENE 02:29:13 10° N
HJ-1C 4.4 02:27:31 10° SE 02:30:15 25° ENE 02:33:00 10° NNE
H-2A R/B 2.4 02:30:54 10° SW 02:32:14 18° SSE 02:33:47 12° ESE
Cosmos 1603 3.6 02:28:55 10° NNW 02:34:35 77° ENE 02:40:10 10° SSE
SJ 16-02 4.4 02:32:43 10° WSW 02:35:22 16° WNW 02:38:01 10° NNW
Sich 1 Rocket 3.6 02:32:36 10° S 02:37:01 65° E 02:41:30 10° NNE
Cosmos 1975 4.0 02:33:30 10° SSW 02:37:26 47° W 02:41:24 10° N
H-2A R/B 2.4 02:33:31 10° SE 02:38:05 39° ENE 02:42:45 10° N
Okean 2 3.6 02:37:03 10° N 02:41:13 77° W 02:45:20 10° S
Meteor 1-21 4.1 02:36:07 10° N 02:41:43 75° E 02:47:17 10° SSE
DMSP B5D1-3 4.5 02:36:37 10° NNE 02:41:44 86° ESE 02:46:49 10° SSW
Cosmos 1842 3.5 02:41:19 10° N 02:45:10 72° W 02:49:01 10° S
Meteor 1-12 Rocket 4.4 02:39:28 10° S 02:45:16 57° E 02:50:59 10° NNE
ATLAS 2AS CENTAUR R/B 3.8 02:40:43 10° SSE 02:46:51 26° ESE 02:53:06 10° NE
CZ-4 R/B 1.9 02:43:43 10° S 02:47:53 64° W 02:52:04 10° NNW
BREEZE-M DEB (TANK) 4.4 02:46:55 10° NNW 02:49:59 25° NE 02:54:11 16° E
Cosmos 2034 Rocket 4.4 02:44:19 10° SSE 02:50:14 42° E 02:56:09 10° NNE
Okean 2 Rocket 3.1 02:48:53 10° S 02:53:19 61° E 02:57:45 10° NNE
Cosmos 1707 2.9 02:51:31 10° N 02:55:12 45° E 02:58:23 13° SSE
Cosmos 1300 Rocket 3.5 02:51:22 10° S 02:55:41 64° E 03:00:03 10° NNE
CENTAUR R/B 4.4 02:51:02 10° N 02:57:20 23° NE 03:01:27 17° ENE
GOES 2 Rocket 3.9 02:54:28 10° SW 02:58:14 32° S 03:00:00 23° SE
Ariane Rocket 3.9 02:56:56 22° ESE 02:58:46 27° ENE 03:03:01 10° NNE
Okean-O 4.3 02:59:47 10° SSW 03:03:51 36° W 03:07:57 10° NNW
YAOGAN 1 3.5 03:00:42 10° S 03:04:52 50° W 03:09:05 10° NNW
Cosmos 1437 4.4 03:03:14 10° NNW 03:05:58 32° W 03:08:40 10° SSW
DELTA 2 R/B (1) 3.6 03:01:13 10° WNW 03:06:47 81° SSW 03:09:53 27° ESE
SJ-6B 4.3 03:08:51 19° NE 03:08:51 19° NE 03:10:38 10° NNE
ARGOS 3.1 03:02:58 10° SSE 03:08:13 61° ENE 03:13:31 10° N
SL-08 RB Rocket 4.1 03:09:03 28° SE 03:10:56 43° ENE 03:15:15 10° N
ATLAS 5 CENTAUR R/B 3.2 03:07:16 10° NW 03:11:13 90° ENE 03:26:09 10° SSE
In-Cosmos 22 4.1 03:06:43 10° N 03:11:56 55° E 03:15:58 17° SSE
USA 186 3.3 03:14:50 23° NNE 03:14:50 23° NNE 03:16:28 10° N
CZ-2C R/B 3.6 03:10:40 10° S 03:15:44 62° W 03:21:09 10° NNW
Cosmos 2298 Rocket 4.2 03:11:40 10° SSW 03:16:58 74° WNW 03:22:19 10° NNE
CZ-2C R/B 2.7 03:12:54 10° NNE 03:18:25 58° E 03:23:55 10° S
Cosmos 1536 Rocket 3.7 03:17:48 10° N 03:22:08 50° E 03:22:45 46° ESE
MOS 1 Rocket 4.0 03:19:20 10° N 03:23:33 50° WNW 03:27:40 10° SSW
ISS -0.5 03:25:39 10° NNW 03:25:54 10° NNW 03:26:10 10° NNW
Cosmos 1025 Rocket 2.9 03:22:22 10° N 03:26:46 80° E 03:28:46 32° SSE
Cosmos 2285 Rocket 3.9 03:25:25 10° S 03:31:39 72° ESE 03:37:57 10° NNE
Cosmos 1844 3.7 03:26:39 10° SSW 03:32:23 86° WNW 03:38:04 10° NNE
Cosmos 2151 Rocket 4.1 03:30:44 10° SSW 03:35:06 60° W 03:39:32 10° N
Cosmos 1844 Rocket 3.1 03:31:17 10° SSW 03:36:46 61° WNW 03:42:18 10° NNE
Cosmos 1867 3.7 03:34:48 10° NNW 03:40:15 72° WSW 03:42:28 36° S
NOSS 3-2 (A) 4.2 03:33:20 10° NNW 03:41:02 58° NE 03:43:55 41° ESE
CZ-2C R/B 1.6 03:38:39 10° W 03:41:25 50° W 03:41:25 50° W
MetOp-A 4.0 03:49:02 67° E 03:49:20 69° ENE 03:54:40 10° N
Cosmos 1092 Rocket 4.0 03:43:37 10° N 03:49:40 55° E 03:49:45 55° E
Cosmos 1125 Rocket 4.0 03:44:47 10° SSW 03:50:00 60° WNW 03:55:16 10° N
MOS 1 4.1 03:53:26 59° SSE 03:54:34 84° ENE 04:00:18 10° NNW
USA 234 3.2 03:52:10 12° NE 03:58:19 83° NW 04:04:52 10° SW
DMSP B5D2-2 4.4 03:55:00 10° N 04:00:14 65° WNW 04:05:26 10° SSW
Resurs 01 Rocket 4.1 04:14:24 14° N 04:14:24 14° N 04:15:04 10° N
NOSS 3-4 (A) 3.5 04:08:57 10° SW 04:14:46 71° WNW 04:18:10 27° NNE
NOSS 3-4 (C) 3.4 04:09:03 10° SW 04:14:52 71° WNW 04:17:39 33° NNE
NOSS 3-2 (C) 4.1 04:09:02 10° NNW 04:16:49 62° ENE 04:17:17 61° ENE
H-2A R/B 4.5 04:14:17 10° SW 04:17:38 18° W 04:21:03 10° NW
ATLAS 2A CENTAUR R/B 4.5 03:27:18 10° W 04:28:07 62° SSW 04:32:29 48° SSE
ATLAS 2AS CENTAUR R/B 3.4 04:29:30 10° SW 04:37:18 63° WNW 04:45:11 10° NNE
Milstar 3 Cent rocket 4.1 04:40:52 10° WSW 04:43:05 21° WSW 04:43:05 21° WSW
CENTAUR R/B 3.2 04:40:38 10° NNW 04:48:39 83° NNW 04:48:39 83° NNW
ATLAS 3B R/B 4.2 04:50:58 10° NNW 04:54:32 27° N 04:54:32 27° N
Cosmos 1980 Rocket 3.9 10:34:34 27° NNE 10:34:34 27° NNE 10:37:00 10° NNE
Cosmos 2322 Rocket 4.4 10:37:25 17° ESE 10:38:43 19° E 10:42:31 10° ENE
SL-16 R/B 3.8 10:47:26 28° ESE 10:47:52 29° ESE 10:52:40 10° NE
ARIANE 5 R/B 4.4 10:51:17 10° N 10:53:01 22° N 10:53:01 22° N
Cosmos 1934 Rocket 4.3 10:51:33 10° N 10:57:12 61° ENE 10:57:12 61° ENE
CZ-2C R/B 4.5 10:57:16 10° NE 11:01:31 25° E 11:04:21 16° SE
IDEFIX/ARIANE 42P 3.8 10:57:53 10° NNE 11:00:51 35° NNE 11:00:51 35° NNE
SJ 16-02 3.7 11:03:47 10° NNE 11:07:15 22° ENE 11:10:41 10° ESE
H-2A R/B 4.0 11:07:48 10° SE 11:11:32 29° ENE 11:15:21 10° N
Meteor 2-6 Rocket 4.4 11:14:54 68° ESE 11:15:06 69° E 11:20:51 10° NNE
Cosmos 1238 Rocket 3.8 11:10:50 10° N 11:17:20 83° E 11:17:49 76° SE
X-37B 3.9 11:23:28 11° NNE 11:23:28 11° NNE 11:23:43 10° NNE
Lacrosse 5 4.2 11:24:36 13° NNW 11:24:36 13° NNW 11:26:00 10° N
Cosmos 1605 Rocket 4.3 11:18:39 10° N 11:25:02 67° E 11:31:22 10° SSE
Cosmos 1535 Rocket 4.4 11:20:06 10° N 11:26:30 79° W 11:27:41 61° SSW
Skynet4D Del rocket 4.5 11:27:38 37° SSE 11:27:38 37° SSE 11:32:08 10° ESE
PAYLOAD A 4.4 11:24:56 10° NNE 11:29:31 54° E 11:30:36 43° SE
Cosmos 468 Rocket 4.1 11:30:16 68° SSE 11:30:48 75° ESE 11:36:05 10° NNE
Cosmos 1812 4.4 11:56:57 22° NNW 11:56:57 22° NNW 11:58:34 10° N
